Wind_Speed
5 3 2 1 2 2 3 3 4 7 7 7 6 7 7 5 5 6 6 19 21 18 18 17 17 18 17 18 18 17 17 17 17 16 15 15 15 14 13 14 14 13 13
4 3 2 1 2 4 4 4 5 6 8 9 7 6 6 5 4 7 6 8 11 16 18 17 17 17 18 18 18 18 18 18 18 17 16 15 15 15 13 14 13 12 13
3 3 3 2 2 2 3 5 6 6 6 6 6 6 4 4 3 2 4 3 6 11 16 15 16 16 18 17 18 17 17 19 18 17 16 15 13 15 13 12 12 13 12
6 4 3 2 1 3 4 6 6 6 5 6 6 6 5 5 4 3 1 1 5 7 9 14 15 15 16 17 17 18 17 17 18 17 16 15 13 13 14 12 12 12 13
6 4 4 3 1 3 4 5 6 6 5 5 5 6 6 5 4 4 2 1 3 6 6 20 15 15 14 16 15 16 16 15 16 15 14 14 14 12 13 13 11 11 11
5 3 2 3 2 3 4 5 6 6 5 6 6 5 5 5 5 4 4 1 0 1 3 15 17 12 14 14 13 14 13 12 13 13 10 10 11 11 10 11 11 9 8
6 3 2 1 2 3 4 6 7 7 6 7 7 8 8 7 6 5 4 3 1 1 2 3 4 13 14 14 13 12 12 11 10 9 8 6 7 7 7 7 8 8 8
9 7 3 1 3 4 5 6 7 7 8 8 7 6 6 6 6 7 8 9 6 4 2 2 2 5 13 12 13 13 12 10 9 7 7 6 5 4 5 6 5 6 6
11 10 6 3 4 6 6 6 6 8 8 9 8 8 6 6 5 5 6 8 8 9 8 6 4 2 5 7 16 14 12 11 10 7 6 5 4 3 3 4 4 4 4
14 11 9 7 6 6 7 9 9 9 8 8 8 8 8 9 8 7 6 6 6 6 7 7 7 6 5 7 11 16 13 11 10 8 8 7 6 4 3 3 2 1 2
18 16 13 12 10 8 9 11 12 11 10 9 7 8 8 9 8 7 6 6 5 6 6 7 8 8 8 7 10 11 17 12 11 11 10 9 8 6 4 5 4 2 1
20 19 17 16 15 12 9 10 13 12 12 10 8 7 7 8 9 7 8 8 7 6 7 7 8 10 10 8 9 10 12 12 11 12 12 12 11 10 9 8 7 6 5
21 19 18 18 16 11 12 11 11 14 14 11 10 9 6 6 8 10 9 11 9 9 7 8 9 9 11 11 10 10 10 12 15 15 15 14 13 13 12 12 11 10 10
23 22 17 18 16 15 12 11 12 13 15 18 12 10 7 6 8 10 8 5 4 7 11 10 10 9 10 12 12 13 14 14 15 16 16 15 16 15 15 16 15 15 14
24 23 22 24 9 15 9 8 11 16 19 21 9 9 6 4 10 11 7 7 9 5 10 11 12 12 12 12 13 15 17 17 17 17 18 18 17 17 16 17 19 17 19
23 24 26 24 12 12 12 14 13 12 12 15 4 6 5 6 8 10 7 5 6 4 6 7 11 13 14 14 14 15 16 16 17 18 20 20 20 20 21 21 20 20 22
34 37 29 16 10 16 16 15 14 8 5 13 5 10 9 8 6 7 6 6 4 4 7 8 10 11 13 16 17 17 19 19 19 18 18 19 19 19 19 21 25 23 24
33 37 28 22 16 15 18 17 17 18 9 8 8 5 9 11 9 8 9 8 6 7 8 8 10 14 11 12 15 17 20 21 22 20 19 18 19 21 24 25 27 26 24
39 31 33 20 13 14 14 16 19 14 9 13 14 14 11 10 9 8 8 6 8 7 10 11 12 12 12 14 15 16 17 19 21 24 26 24 22 23 26 30 27 27 22
37 41 26 9 10 11 13 16 19 3 10 3 11 12 14 12 8 6 8 10 10 11 12 12 12 12 12 14 15 16 17 18 20 22 20 21 21 21 22 24 22 23 22
36 47 24 12 7 9 7 12 10 7 12 12 13 13 14 12 8 6 7 7 8 10 11 12 9 10 11 12 14 14 14 16 18 18 20 20 20 20 17 17 20 21 22
51 48 41 6 12 14 7 10 1 7 9 15 15 15 12 9 8 6 5 7 8 9 9 8 9 10 11 12 15 15 15 15 16 18 19 19 20 21 20 19 19 20 21
39 33 12 16 15 18 10 10 3 10 5 15 16 19 16 12 8 6 6 8 7 8 7 7 8 9 11 13 16 17 17 16 15 15 17 19 18 19 19 21 22 22 21
22 22 23 19 18 15 9 7 7 4 6 12 19 13 14 7 8 7 7 9 6 6 5 7 8 11 12 13 15 16 17 18 18 17 17 20 20 18 18 16 20 21 22
17 20 21 23 22 15 9 4 6 7 9 8 8 6 4 5 6 6 6 6 6 7 7 8 9 10 10 12 12 13 14 14 14 15 16 17 18 16 16 16 17 21 19
17 18 19 22 24 20 10 3 2 2 1 5 4 1 2 3 5 4 5 6 5 5 6 7 7 9 11 10 10 10 10 10 11 12 14 17 17 17 17 19 18 18 18
Wind_Direction
86 83 120 168 145 198 237 209 184 155 147 149 147 138 125 114 89 74 64 137 132 131 126 120 115 112 115 115 115 118 120 118 116 112 107 104 102 98 101 101 100 98 99
106 103 113 146 189 217 226 222 190 163 155 155 147 137 131 125 106 106 108 117 136 136 133 127 120 116 115 115 116 120 120 116 113 110 109 104 102 99 101 102 96 99 105
79 99 104 107 217 239 228 205 201 186 175 166 165 161 164 143 146 118 115 92 2 123 137 136 127 124 120 118 119 120 122 119 115 113 110 105 99 100 102 100 100 92 96
88 86 88 96 219 212 195 204 204 200 188 182 172 168 162 153 143 147 138 166 274 33 132 149 139 133 130 126 126 127 126 125 119 115 111 108 103 101 100 98 101 98 95
90 102 92 92 164 195 189 210 201 189 182 178 183 179 175 154 153 138 130 10 338 358 16 154 152 147 143 140 138 137 135 132 123 118 115 112 110 105 106 104 100 96 96
63 82 108 120 159 187 191 204 195 190 193 199 205 202 191 174 179 173 172 155 141 17 62 153 168 162 155 151 155 149 147 140 131 125 121 115 111 108 109 112 108 100 91
49 49 49 230 190 196 201 207 197 186 192 200 207 216 219 220 219 215 212 241 154 135 126 105 60 156 173 170 163 162 155 155 147 139 132 125 108 106 109 107 110 108 96
49 38 21 274 252 238 223 215 210 195 186 190 187 198 202 215 225 229 225 242 237 234 238 142 159 144 166 181 179 177 177 177 169 159 163 158 152 126 116 111 113 107 99
44 35 5 313 270 257 247 234 228 220 206 197 190 189 196 208 211 219 211 223 235 237 241 231 221 183 159 173 189 186 191 186 187 190 195 196 196 171 151 138 111 96 95
35 26 20 3 305 277 257 246 239 238 222 209 199 197 195 202 203 207 204 206 221 228 229 227 224 212 191 201 180 193 196 195 192 220 205 200 222 219 202 213 169 109 93
27 25 16 3 356 324 279 249 237 237 233 221 202 200 204 209 210 216 218 208 212 213 221 233 228 211 207 232 198 192 199 201 210 219 225 215 210 224 230 248 244 247 267
19 18 12 8 348 336 318 297 255 239 233 225 214 198 205 217 216 218 227 225 220 229 215 230 233 231 224 218 204 193 194 204 215 227 236 247 251 247 245 251 263 270 269
10 9 3 360 341 331 319 306 301 260 250 237 210 198 210 215 222 214 248 215 221 235 231 229 238 235 233 236 223 217 212 217 220 227 229 237 249 260 265 266 261 258 268
7 356 352 346 344 323 290 280 285 263 251 241 222 184 188 220 255 256 280 278 236 221 234 234 232 241 244 241 243 239 235 240 234 239 242 244 247 254 261 264 263 266 269
358 343 347 338 330 10 20 304 313 269 258 257 226 166 195 242 266 258 286 266 262 251 239 240 238 237 239 243 245 247 249 250 244 247 249 248 250 261 265 265 262 261 264
349 349 338 329 328 354 10 356 342 312 245 236 175 196 199 261 255 244 253 234 228 239 242 243 236 238 244 245 249 253 254 254 256 258 259 250 250 256 259 262 261 266 264
341 339 333 338 6 357 356 346 325 356 252 224 170 186 208 234 230 221 219 234 217 215 222 233 252 261 256 244 246 255 259 260 259 256 258 258 258 264 270 272 267 261 263
332 337 331 318 349 349 341 333 321 334 211 190 179 211 236 214 219 215 218 225 241 251 250 252 267 262 263 266 259 256 258 259 261 262 261 260 259 260 265 266 269 260 264
331 321 317 307 315 344 346 326 320 326 200 190 195 212 217 218 225 231 235 249 254 255 259 273 287 277 280 274 267 263 263 263 262 263 265 265 269 269 269 272 254 253 256
306 327 318 219 306 349 347 330 329 272 178 199 199 226 213 222 224 242 255 265 269 271 271 277 283 283 281 275 266 264 262 261 257 261 263 264 271 269 272 268 237 245 253
319 323 354 261 10 360 344 337 323 179 199 209 217 210 207 219 227 237 241 277 283 275 271 275 276 276 279 279 276 270 262 255 253 260 266 268 268 268 275 260 245 247 251
333 323 304 247 357 339 355 340 181 180 203 212 221 200 205 207 211 219 252 284 286 274 267 264 276 289 288 287 287 283 274 263 256 260 264 262 264 263 261 255 248 249 252
340 8 20 23 356 347 346 352 17 208 207 180 193 202 196 198 219 235 278 299 283 263 262 278 289 292 292 289 285 281 274 271 265 263 260 258 262 259 271 247 245 243 250
349 351 360 1 354 350 340 346 11 16 190 187 186 172 181 200 226 248 276 297 283 299 306 303 304 302 297 291 286 281 273 267 264 263 258 254 258 258 260 255 253 247 251
344 344 353 357 353 345 358 309 360 25 43 187 86 103 177 212 238 256 280 292 290 295 293 294 300 297 298 299 296 285 275 268 259 252 258 263 264 253 258 256 254 247 256
327 334 351 355 355 343 335 286 289 353 289 99 101 150 170 227 244 249 286 296 283 283 291 291 296 305 315 310 305 288 282 275 266 252 251 256 259 256 252 266 248 247 258
Height
5905 5904 5904 5904 5903 5905 5905 5904 5904 5904 5904 5904 5904 5905 5905 5906 5906 5906 5906 5907 5905 5908 5908 5909 5909 5909 5910 5910 5910 5911 5912 5913 5913 5914 5915 5915 5915 5915 5915 5915 5914 5914 5915
5905 5905 5905 5904 5904 5904 5905 5904 5904 5904 5904 5904 5905 5905 5906 5906 5906 5907 5906 5907 5908 5908 5908 5909 5910 5911 5911 5912 5913 5914 5914 5914 5915 5916 5916 5917 5916 5917 5918 5917 5917 5916 5917
5906 5906 5905 5905 5905 5904 5904 5904 5904 5904 5904 5904 5905 5905 5905 5906 5906 5906 5906 5906 5904 5907 5909 5910 5911 5913 5913 5914 5915 5916 5917 5916 5917 5918 5918 5918 5918 5918 5918 5919 5919 5918 5918
5906 5906 5905 5905 5904 5904 5905 5905 5905 5905 5904 5905 5905 5905 5905 5906 5906 5906 5906 5907 5906 5906 5909 5911 5913 5914 5915 5915 5917 5917 5919 5919 5918 5919 5920 5920 5920 5920 5920 5920 5920 5920 5920
5906 5906 5904 5905 5905 5905 5905 5906 5905 5905 5905 5906 5906 5906 5906 5906 5906 5906 5907 5907 5907 5908 5909 5910 5912 5914 5916 5917 5918 5919 5920 5921 5920 5921 5922 5922 5921 5922 5922 5921 5922 5922 5922
5907 5906 5905 5905 5905 5905 5905 5905 5905 5905 5905 5905 5905 5905 5906 5906 5907 5907 5907 5908 5908 5909 5909 5911 5914 5914 5916 5917 5920 5920 5922 5922 5923 5923 5924 5924 5924 5924 5924 5924 5923 5923 5923
5908 5906 5905 5905 5905 5905 5905 5904 5904 5903 5904 5904 5904 5904 5905 5905 5907 5907 5909 5908 5909 5910 5910 5910 5911 5914 5916 5917 5919 5922 5922 5923 5923 5924 5925 5926 5926 5926 5926 5926 5925 5925 5925
5908 5906 5906 5905 5905 5905 5905 5904 5903 5903 5902 5903 5903 5904 5904 5904 5906 5906 5908 5909 5910 5910 5910 5911 5912 5913 5915 5916 5918 5921 5922 5923 5923 5924 5925 5926 5926 5927 5927 5927 5927 5926 5926
5910 5907 5907 5905 5905 5904 5904 5904 5903 5903 5902 5902 5902 5903 5904 5904 5905 5906 5907 5908 5908 5910 5911 5911 5912 5913 5914 5915 5917 5919 5921 5922 5923 5925 5926 5926 5927 5927 5927 5927 5927 5927 5927
5911 5909 5908 5907 5906 5904 5903 5903 5902 5901 5901 5901 5901 5902 5903 5903 5903 5905 5906 5907 5907 5908 5910 5911 5911 5912 5914 5915 5916 5918 5919 5921 5922 5924 5925 5926 5927 5927 5927 5927 5927 5927 5927
5913 5912 5910 5909 5907 5905 5903 5901 5899 5899 5899 5899 5900 5900 5901 5902 5903 5903 5904 5906 5906 5907 5908 5909 5910 5911 5912 5912 5915 5916 5917 5919 5921 5923 5924 5926 5926 5926 5926 5927 5927 5927 5927
5916 5913 5911 5908 5906 5904 5902 5902 5899 5898 5897 5897 5897 5898 5899 5900 5901 5902 5902 5904 5904 5906 5906 5907 5909 5910 5911 5911 5913 5915 5917 5918 5919 5921 5923 5924 5925 5926 5926 5926 5926 5926 5926
5917 5914 5911 5908 5904 5902 5900 5899 5897 5897 5896 5896 5895 5896 5897 5898 5899 5899 5899 5901 5903 5905 5906 5907 5907 5908 5909 5910 5912 5913 5915 5916 5917 5918 5919 5921 5922 5924 5924 5925 5925 5925 5925
5917 5913 5908 5904 5900 5898 5895 5895 5895 5894 5893 5892 5892 5893 5894 5896 5896 5896 5897 5899 5900 5903 5903 5905 5905 5907 5908 5908 5909 5911 5912 5913 5914 5915 5916 5918 5919 5920 5921 5922 5923 5923 5923
5917 5911 5908 5904 5900 5895 5890 5892 5891 5889 5889 5888 5888 5889 5892 5894 5895 5896 5897 5898 5898 5899 5902 5903 5904 5905 5905 5905 5907 5909 5909 5910 5912 5912 5913 5915 5916 5917 5918 5918 5919 5919 5919
5916 5912 5907 5903 5900 5895 5890 5888 5888 5887 5885 5885 5887 5886 5889 5891 5893 5894 5896 5897 5897 5897 5898 5899 5900 5901 5903 5903 5904 5905 5905 5907 5908 5909 5910 5910 5911 5912 5913 5915 5915 5914 5915
5917 5914 5908 5902 5898 5896 5891 5887 5885 5885 5883 5883 5885 5886 5887 5889 5891 5892 5893 5894 5894 5896 5897 5898 5899 5899 5900 5900 5901 5902 5902 5903 5904 5904 5905 5906 5908 5908 5909 5910 5910 5910 5910
5913 5907 5906 5899 5895 5890 5888 5883 5882 5881 5879 5881 5882 5884 5886 5888 5889 5890 5891 5892 5893 5894 5895 5896 5897 5897 5898 5898 5898 5899 5900 5900 5900 5901 5902 5902 5903 5904 5904 5904 5904 5905 5906
5907 5903 5896 5896 5890 5888 5882 5881 5879 5876 5877 5877 5879 5881 5884 5885 5886 5888 5889 5890 5891 5893 5893 5894 5894 5894 5894 5895 5895 5895 5896 5897 5897 5898 5897 5898 5899 5899 5899 5898 5897 5899 5901
5896 5895 5884 5855 5886 5882 5880 5879 5875 5875 5875 5875 5877 5879 5881 5883 5886 5886 5887 5887 5888 5888 5889 5890 5891 5891 5891 5891 5891 5891 5892 5892 5893 5892 5892 5893 5894 5894 5893 5893 5893 5894 5895
5887 5887 5897 5895 5881 5881 5879 5877 5873 5873 5872 5871 5876 5877 5879 5882 5883 5884 5884 5885 5885 5885 5886 5887 5888 5888 5888 5887 5887 5887 5887 5887 5887 5888 5887 5887 5888 5888 5888 5888 5890 5890 5891
5895 5876 5873 5882 5883 5883 5875 5875 5872 5871 5869 5872 5874 5877 5879 5880 5881 5882 5883 5883 5883 5883 5883 5884 5884 5885 5884 5883 5882 5882 5882 5882 5882 5882 5882 5882 5882 5882 5883 5883 5885 5886 5888
5899 5887 5875 5879 5882 5879 5874 5874 5871 5871 5869 5870 5873 5874 5876 5878 5880 5881 5880 5880 5880 5881 5881 5881 5881 5882 5881 5880 5878 5877 5877 5877 5878 5878 5878 5878 5878 5878 5878 5879 5880 5881 5883
5901 5897 5891 5887 5882 5879 5876 5874 5871 5870 5869 5870 5870 5872 5874 5877 5878 5879 5879 5878 5878 5878 5878 5878 5878 5878 5877 5876 5874 5873 5872 5872 5873 5873 5874 5873 5873 5874 5874 5874 5875 5876 5877
5897 5894 5890 5887 5884 5880 5877 5876 5872 5869 5869 5869 5870 5871 5875 5876 5877 5877 5877 5877 5877 5876 5877 5877 5876 5876 5874 5872 5870 5869 5868 5868 5868 5869 5869 5869 5869 5869 5870 5870 5871 5872 5872
5892 5891 5887 5885 5881 5879 5878 5876 5874 5871 5871 5870 5872 5873 5873 5874 5875 5875 5875 5875 5875 5875 5876 5876 5874 5873 5871 5869 5867 5865 5865 5864 5865 5865 5865 5865 5865 5866 5866 5865 5867 5868 5870